Bolton Field, OH

4:48 AM EDT on August 19, 2017 (GMT -0400)
Bolton

Weather History for KTZR - November, 2012

Change the Weather History Date:

Tuesday, November 27, 2012

  Actual Average Record
Temperature  
Mean Temperature 28 °F -  
Max Temperature 38 °F 46 °F 71 °F (2011)
Min Temperature 20 °F 32 °F 17 °F (2008)
Degree Days  
Heating Degree Days 36    
Moisture  
Dew Point 25 °F    
Average Humidity 79    
Maximum Humidity 92    
Minimum Humidity 52    
Precipitation  
Precipitation 0.00 in - - ()
Sea Level Pressure  
Sea Level Pressure 30.27 in    
Wind  
Wind Speed 9 mph (NNW)    
Max Wind Speed 14 mph    
Max Gust Speed 21 mph    
Visibility 10 miles    
Events Snow    
Averages and records for this station are not official NWS values.
T = Trace of Precipitation, MM = Missing Value Source: NWS Daily Summary

Daily Weather History Graph

Daily Weather History Graph

Search for Another Location

Airport or City:

Trip Planner

Search our weather history database for the weather conditions in past years. The results will help you decide how hot, cold, wet, or windy it might be!

Date:

Astronomy

Nov. 27, 2012 Rise Set
Actual Time 7:31 AM EST 5:09 PM EST
Civil Twilight 7:01 AM EST 5:38 PM EST
Nautical Twilight 6:28 AM EST 6:12 PM EST
Astronomical Twilight 5:55 AM EST 6:44 PM EST
Moon 4:39 PM EST (11/27) 6:35 AM EST (11/27)
Length of Visible Light 10h 37m
Length of Day
9h 37m
Waxing Gibbous, 99% of the Moon is Illuminated
Nov 27
Waxing Gibbous
Nov 28
Full
Dec 6
Last Quarter
Dec 13
New
Dec 20
First Quarter

Hourly Weather History & Observations

Time (EST) Temp. Windchill Dew Point Humidity Pressure Visibility Wind Dir Wind Speed Gust Speed Precip Events Conditions
12:15 AM 36.7 °F 28.9 °F 29.8 °F 76% 30.23 in 10.0 mi North 11.5 mph 17.3 mph N/A   Overcast
12:35 AM 36.0 °F 29.0 °F 30.0 °F 79% 30.24 in 10.0 mi NNW 9.2 mph 20.7 mph N/A   Overcast
12:55 AM 35.2 °F 28.1 °F 30.2 °F 82% 30.23 in 10.0 mi NNW 9.2 mph - N/A   Overcast
1:15 AM 34.3 °F 25.9 °F 30.2 °F 85% 30.24 in 10.0 mi NW 11.5 mph - N/A   Overcast
1:35 AM 34.2 °F 26.2 °F 30.7 °F 87% 30.24 in 10.0 mi North 10.4 mph - N/A   Overcast
1:55 AM 33.8 °F 26.4 °F 30.2 °F 87% 30.24 in 7.0 mi NNW 9.2 mph - N/A   Overcast
2:15 AM 33.1 °F 26.1 °F 30.0 °F 89% 30.24 in 5.0 mi NNW 8.1 mph - N/A Snow Light Snow
2:35 AM 32.4 °F 26.0 °F 30.4 °F 92% 30.25 in 4.0 mi North 6.9 mph - N/A Snow Light Snow
2:55 AM 32.2 °F 25.8 °F 30.2 °F 92% 30.24 in 7.0 mi North 6.9 mph - N/A Snow Light Snow
3:15 AM 32.4 °F 26.0 °F 30.2 °F 92% 30.24 in 7.0 mi North 6.9 mph - N/A   Overcast
3:35 AM 32.2 °F 24.4 °F 29.3 °F 89% 30.24 in 10.0 mi North 9.2 mph - N/A   Overcast
3:55 AM 32.0 °F 24.8 °F 29.1 °F 89% 30.23 in 10.0 mi North 8.1 mph - N/A   Overcast
4:15 AM 32.2 °F 25.0 °F 28.8 °F 87% 30.24 in 10.0 mi North 8.1 mph - N/A   Overcast
4:35 AM 32.2 °F 24.4 °F 28.8 °F 87% 30.24 in 10.0 mi North 9.2 mph - N/A   Overcast
4:55 AM 32.0 °F 24.8 °F 28.8 °F 88% 30.24 in 10.0 mi NNW 8.1 mph - N/A   Overcast
5:15 AM 32.0 °F 25.6 °F 28.4 °F 87% 30.24 in 10.0 mi North 6.9 mph - N/A   Overcast
5:35 AM 32.0 °F 25.6 °F 28.0 °F 85% 30.24 in 10.0 mi North 6.9 mph - N/A   Overcast
5:55 AM 32.0 °F 25.6 °F 27.5 °F 83% 30.24 in 10.0 mi North 6.9 mph - N/A   Overcast
6:15 AM 31.8 °F 25.4 °F 27.1 °F 83% 30.24 in 10.0 mi North 6.9 mph - N/A   Overcast
6:55 AM 31.5 °F 21.8 °F 25.5 °F 79% 30.26 in 10.0 mi NNW 12.7 mph - N/A   Overcast
7:15 AM 31.5 °F 23.5 °F 25.2 °F 78% 30.27 in 10.0 mi NNW 9.2 mph - N/A   Overcast
7:50 AM 30.2 °F 20.8 °F 24.8 °F 80% 30.29 in 10.0 mi NNW 11.5 mph - N/A   Overcast
9:58 AM 33.8 °F 24.3 °F 23.0 °F 65% 30.32 in 10.0 mi North 13.8 mph - N/A   Scattered Clouds
10:50 AM 33.8 °F 24.3 °F 24.8 °F 70% 30.33 in 10.0 mi NNW 13.8 mph - N/A   Scattered Clouds
11:50 AM 35.6 °F 28.0 °F 23.0 °F 60% 30.32 in 10.0 mi NNW 10.4 mph - N/A   Clear
12:50 PM 37.4 °F 32.8 °F 23.0 °F 56% 30.30 in 10.0 mi NNE 5.8 mph - N/A   Clear
2:50 PM 37.4 °F 31.4 °F 21.2 °F 52% 30.27 in 10.0 mi North 8.1 mph - N/A   Clear
3:47 PM 37.4 °F 33.8 °F 21.2 °F 52% 30.26 in 10.0 mi WNW 4.6 mph - N/A   Clear
4:47 PM 33.8 °F 28.6 °F 21.2 °F 60% 30.27 in 10.0 mi NW 5.8 mph - N/A   Clear
5:50 PM 30.2 °F 25.4 °F 19.4 °F 64% 30.29 in 10.0 mi NW 4.6 mph - N/A   Clear
8:15 PM 28.4 °F 22.2 °F 20.1 °F 71% 30.32 in 10.0 mi WNW 5.8 mph - N/A   Clear
8:35 PM 28.4 °F 23.3 °F 20.3 °F 72% 30.31 in 10.0 mi WNW 4.6 mph - N/A   Clear
8:55 PM 27.3 °F 22.0 °F 19.9 °F 74% 30.31 in 10.0 mi WNW 4.6 mph - N/A   Clear
9:15 PM 26.6 °F 21.2 °F 19.4 °F 74% 30.31 in 10.0 mi WNW 4.6 mph - N/A   Clear
9:35 PM 23.9 °F 19.5 °F 18.0 °F 78% 30.31 in 10.0 mi WNW 3.5 mph - N/A   Clear
9:55 PM 23.9 °F - 18.5 °F 80% 30.30 in 10.0 mi North - - N/A   Clear
10:15 PM 22.8 °F - 17.8 °F 81% 30.30 in 10.0 mi North - - N/A   Clear
10:35 PM 23.5 °F - 19.0 °F 83% 30.31 in 10.0 mi North - - N/A   Clear
10:55 PM 20.7 °F - 17.1 °F 86% 30.31 in 10.0 mi North - - N/A   Mostly Cloudy
11:15 PM 22.1 °F - 18.3 °F 85% 30.31 in 10.0 mi North - - N/A   Scattered Clouds
11:55 PM 21.9 °F - 18.5 °F 87% 30.30 in 10.0 mi North - - N/A   Clear